Location: Pallagorio
(39.3000°N, 16.9000°E)
Time: 02:10:17
(UTC+00:00)

YAOGAN 3 - Pass Details

Date: 24 January 2021
Orbit: 625 x 627 km, 98.0° (Epoch: 08 March)

Event Time Altitude Azimuth Distance (km) Brightness Sun altitude
Rises 16:53:40 0° 161° (SSE) 2,896 8.0 -9.9°
Reaches altitude 10° 16:55:51 10° 160° (SSE) 1,994 7.1 -10.3°
Maximum altitude 17:00:10 74° 75° (ENE) 657 4.5 -11.1°
Drops below altitude 10° 17:04:32 10° 351° (N) 2,009 7.1 -11.9°
Sets 17:06:44 0° 350° (N) 2,921 8.0 -12.3°
